CZ-6A DEB

Satellite information

Favourite Embed

Satellite Type and Status

DEBRISIN ORBIT

Key statistics

Satellite CZ-6A DEB at a glance.

Uptime

1076

Days in orbit

Revolutions

≈ 14.2

Per day

Orbit

SSO

Sun Synchronous Orbit

Inclination

98.8

Latest

Satellite identification and parameters

Extended collection of information and parameters for CZ-6A DEB.

Object identification

Identified? True

Debris? True

Object name: CZ-6A DEB

International designator: 2022-151ABR

Object number (NORAD): 56249

Object ID (CCSDS): 56249

Country: PEOPLES REPUBLIC OF CHINA (PRC)

Current information (Y/N): Y

RCS size: SMALL

Orbital parameters

Period: 101.1 minutes

Inclination: 98.7804 deg

SMA: 7188.885 km

Apoapsis: 842.867 km

Periapsis: 778.633 km

RAAN: 310.1016 deg

Eccentricy: 0.00446755

Argument of periapsis: 312.5458 deg

Mean anomaly: 47.1952 deg

Mean motion: 14.24329468 rev/day

Mean motion (dot): 0.00003101 rev/day2

B* drag term: 0.0013470613 1/REarth

Two-line elements (TLE)

Creation date: Oct. 21, 2025, 6:24 p.m.

Reference frame: TEME

Reference center: EARTH

Epoch: Oct. 20, 2025, 11:39 p.m. UTC

TLE line 0: 0 CZ-6A DEB

TLE line 1: 1 56249U 22151ABR 25293.98601320 .00003101 00000-0 13471-2 0 9990

TLE line 2: 2 56249 98.7804 310.1016 0044676 312.5458 47.1952 14.24329468140535

Live tracking on map

Real-time ground track for satellite CZ-6A DEB.

In-orbit conjunctions

A list of the most updated potential collisions computed for object CZ-6A DEB.

Target Orbit TCA Probability of collision Miss distance Type
SL-16 DEB LEO 2025-05-01 10:10:04 0.0001673899 110.0 (m) DEBRIS
METEOR 1-17 DEB LEO 2024-11-14 07:28:17 0.0002347908 817.0 (m) DEBRIS
CZ-6A DEB LEO 2024-10-31 18:31:24 0.0001421224 870.0 (m) DEBRIS

Associated space launch

Chinese satellite reported for atmospheric/ocean/environmental/spatial parameter research purposes, details TBD.

CZ-6A DEB was lifted into orbit during the mission ‘Long March 6A | Yunhai 3’, on board a Long March 6A space rocket.

The launch took place on Nov. 11, 2022, 10:52 p.m. from Launch Complex 9A.

For more information about the launch, click the button.

Launch to space Long March 6A | Yunhai 3
Long March 6A | Yunhai 3

Agency: N/A

Status: Launch Successful

Launch date: Nov. 11, 2022, 10:52 p.m. UTC

Rocket: Long March 6A

Launch pad: Launch Complex 9A

Location: Taiyuan Satellite Launch Center, People's Republic of China

...

Latest news about this satellite

There are no fresh news available about this satellite. Check back as we update our databases every day.


Newsletter sign-up

Weekly statistics, charts and insights to help you stay on top of the space industry.